GW5858 Weather Reports


Display with metric or nautical units.
time (UTC)temp
F
wind
direction
speed
MPH
gust
MPH
rain 1hr
in
rain 24hr
in
rain mn
in
humidity
%
barometer
mb
20260906073010 61 107 0.0 2.0 0.00 0.00 0.00 91 1016.6
20260906071505 61 107 0.0 0.0 0.00 0.00 0.00 90 1016.5
20260906070020 62 107 0.0 0.0 0.00 0.00 0.00 90 1016.4
20260906064509 62 107 0.0 2.0 0.00 0.00 0.00 89 1016.6
20260906063006 62 107 0.0 2.0 0.00 0.00 0.00 89 1016.5
20260906061509 62 107 0.0 2.0 0.00 0.00 0.00 90 1016.4
20260906060008 62 107 0.0 2.0 0.00 0.00 0.00 90 1016.5
20260906054509 62 107 0.0 0.0 0.00 0.00 0.00 89 1016.6
20260906053017 63 107 0.0 0.0 0.00 0.00 0.00 88 1016.5
20260906051508 63 107 1.0 2.0 0.00 0.00 0.00 87 1016.5
20260906050027 64 107 0.0 0.0 0.00 0.00 0.00 85 1016.4
20260906044522 64 107 0.0 0.0 0.00 0.00 0.00 84 1016.4
20260906043017 64 107 0.0 0.0 0.00 0.00 0.00 84 1016.4
20260906041524 64 107 0.0 2.0 0.00 0.00 0.00 84 1016.3
20260906040009 64 107 0.0 0.0 0.00 0.00 0.00 86 1016.2
20260906034534 64 107 0.0 0.0 0.00 0.00 0.00 86 1016.2
20260906033030 64 107 0.0 2.0 0.00 0.00 0.00 86 1016.2
20260906031530 64 107 0.0 0.0 0.00 0.00 0.00 84 1016.0
20260906030032 63 107 0.0 0.0 0.00 0.00 0.00 85 1015.9
20260906024520 63 107 0.0 0.0 0.00 0.00 0.00 85 1016.0
20260906023014 63 107 0.0 2.0 0.00 0.00 0.00 85 1016.0
20260906021510 62 107 0.0 0.0 0.00 0.00 0.00 85 1015.9
20260906020010 62 107 0.0 0.0 0.00 0.00 0.00 84 1015.7
20260906014525 63 107 0.0 0.0 0.00 0.00 0.00 82 1015.7
20260906013022 64 107 0.0 0.0 0.00 0.00 0.00 80 1015.7
20260906011510 65 107 0.0 0.0 0.00 0.00 0.00 79 1015.6
20260906010036 65 107 0.0 0.0 0.00 0.00 0.00 78 1015.5
20260906004510 65 107 0.0 0.0 0.00 0.00 0.00 77 1015.4
20260906003017 65 107 0.0 0.0 0.00 0.00 0.00 76 1015.3
20260906001511 67 107 0.0 0.0 0.00 0.00 0.00 72 1015.2
20260906000026 68 107 0.0 2.0 0.00 0.00 0.00 68 1015.2
20260905234511 70 107 1.0 3.0 0.00 0.00 0.00 65 1015.1
20260905233018 71 85 0.0 6.0 0.00 0.00 0.00 64 1015.1
20260905231536 72 62 1.0 6.0 0.00 0.00 0.00 60 1015.1
20260905230019 72 88 2.0 8.0 0.00 0.00 0.00 60 1015.0
20260905224510 73 116 2.0 7.0 0.00 0.00 0.00 58 1015.0
20260905223034 73 87 1.0 6.0 0.00 0.00 0.00 58 1015.0
20260905221509 74 113 2.0 7.0 0.00 0.00 0.00 60 1015.1
20260905220012 74 82 3.0 8.0 0.00 0.00 0.00 58 1014.9
20260905214511 74 66 3.0 6.0 0.00 0.00 0.00 56 1014.8
20260905213009 75 22 2.0 10.0 0.00 0.00 0.00 59 1014.6
20260905211532 75 51 4.0 10.0 0.00 0.00 0.00 58 1014.7
20260905210012 75 98 2.0 7.0 0.00 0.00 0.00 57 1014.5
20260905204522 75 35 4.0 9.0 0.00 0.00 0.00 58 1014.5
20260905203040 73 70 2.0 6.0 0.00 0.00 0.00 60 1014.5
20260905201518 74 103 3.0 10.0 0.00 0.00 0.00 58 1014.7
20260905200025 78 69 4.0 9.0 0.00 0.00 0.00 55 1014.7
20260905194512 76 90 2.0 8.0 0.00 0.00 0.00 59 1014.7
20260905193025 75 30 4.0 8.0 0.00 0.00 0.00 59 1014.7
20260905191523 75 88 4.0 11.0 0.00 0.00 0.00 56 1015.0
20260905190012 74 40 2.0 5.0 0.00 0.00 0.00 58 1015.0
20260905184513 76 43 3.0 7.0 0.00 0.00 0.00 53 1015.1
20260905183025 78 41 5.0 11.0 0.00 0.00 0.00 55 1015.0
20260905181528 77 333 2.0 6.0 0.00 0.00 0.00 55 1014.8
20260905180026 73 9 2.0 7.0 0.00 0.00 0.00 61 1014.9
20260905174527 76 53 5.0 9.0 0.00 0.00 0.00 56 1014.8
20260905173012 73 44 0.0 5.0 0.00 0.00 0.00 60 1014.8
20260905171513 76 53 5.0 9.0 0.00 0.00 0.00 58 1015.0
20260905170015 74 38 3.0 7.0 0.00 0.00 0.00 57 1015.1
20260905164513 75 138 4.0 9.0 0.00 0.00 0.00 57 1015.0
20260905163005 75 305 2.0 6.0 0.00 0.00 0.00 65 1015.0
20260905161511 73 57 3.0 10.0 0.00 0.00 0.00 65 1015.1
20260905160025 74 120 3.0 9.0 0.00 0.00 0.00 63 1015.1
20260905154514 75 94 4.0 8.0 0.00 0.00 0.00 63 1015.3
20260905153027 74 69 2.0 7.0 0.00 0.00 0.00 68 1015.2
20260905151524 74 90 5.0 9.0 0.00 0.00 0.00 66 1015.3
20260905150018 73 32 3.0 8.0 0.00 0.00 0.00 66 1015.4
20260905144513 75 190 2.0 10.0 0.00 0.00 0.00 64 1015.3
20260905143016 73 38 3.0 6.0 0.00 0.00 0.00 69 1015.2
20260905141516 72 56 3.0 5.0 0.00 0.00 0.00 70 1015.4
20260905140017 72 80 2.0 6.0 0.00 0.00 0.00 70 1015.4
20260905134513 71 83 3.0 6.0 0.00 0.00 0.00 74 1015.5
20260905133016 71 67 2.0 6.0 0.00 0.00 0.00 76 1015.4
20260905131514 71 94 2.0 6.0 0.00 0.00 0.00 77 1015.5
20260905130014 70 28 0.0 4.0 0.00 0.00 0.00 81 1015.5
20260905124517 69 70 2.0 2.0 0.00 0.00 0.00 83 1015.5
20260905123016 67 70 0.0 0.0 0.00 0.00 0.00 87 1015.5
20260905121516 65 70 0.0 0.0 0.00 0.00 0.00 89 1015.7
20260905120014 63 70 0.0 0.0 0.00 0.00 0.00 92 1015.6
20260905114515 61 70 0.0 0.0 0.00 0.00 0.00 94 1015.6
20260905113014 60 70 0.0 0.0 0.00 0.00 0.00 94 1015.4
20260905111515 59 70 0.0 0.0 0.00 0.00 0.00 94 1015.0
20260905110016 58 70 0.0 0.0 0.00 0.00 0.00 94 1014.7
20260905104514 58 70 0.0 0.0 0.00 0.00 0.00 94 1014.7
20260905103030 59 70 0.0 0.0 0.00 0.00 0.00 93 1014.8
20260905101514 59 70 0.0 0.0 0.00 0.00 0.00 93 1014.8
20260905100017 59 70 0.0 0.0 0.00 0.00 0.00 93 1014.7
20260905094516 59 70 0.0 0.0 0.00 0.00 0.00 93 1014.6
20260905093015 59 70 0.0 0.0 0.00 0.00 0.00 93 1014.5
20260905091516 59 70 0.0 0.0 0.00 0.00 0.00 93 1014.4
20260905090017 59 70 0.0 0.0 0.00 0.00 0.00 92 1014.3
20260905084519 60 70 0.0 0.0 0.00 0.00 0.00 92 1014.1
20260905083001 61 70 0.0 0.0 0.00 0.00 0.00 92 1014.0
20260905081518 61 70 0.0 0.0 0.00 0.00 0.00 92 1013.9
20260905080017 61 70 0.0 0.0 0.00 0.00 0.00 91 1014.0
20260905074510 62 70 0.0 0.0 0.00 0.00 0.00 91 1014.0